Location: Newark
(50.8922°N, 11.6094°E)
Time: 21:08:02
(UTC+00:00)

N. Korean satellite - Pass Details

Date: 28 January 2020
Orbit: 456 x 505 km, 97.2° (Epoch: 23 February)

Event Time Altitude Azimuth Distance (km) Brightness Sun altitude
Rises 16:38:00 0° 187° (S) 2,463 10.6 -6.7°
Reaches altitude 10° 16:40:09 10° 197° (SSW) 1,597 9.8 -7.0°
Maximum altitude 16:43:16 33° 263° (W) 801 8.5 -7.5°
Drops below altitude 10° 16:46:27 10° 329° (NNW) 1,621 9.4 -8.0°
Sets 16:48:39 0° 340° (NNW) 2,509 10.2 -8.3°
